{"data":{"norad_id":66803,"intl_designator":"2025-278N","name":"STARLINK-35565","alt_names":[],"object_type":"PAYLOAD","status":"ACTIVE","operator":null,"country":"US","launch_date":"2025-12-01","launch_site_code":"AFETR","launch_vehicle":null,"mission":null,"orbit_class":"UNKNOWN","rcs_meters":null,"size_class":null,"mass_kg":null,"dimensions":null,"purposes":["comms"],"wikipedia_slug":null,"has_3d_model":false,"image_url":null,"decayed_at":null,"tle_current":{"epoch":"2026-05-25T02:38:53.504736Z","epoch_age_seconds":69534,"freshness":"FRESH","line1":"1 66803U 25278N   26145.11034149  .00012398  00000+0  45920-3 0  9993","line2":"2 66803  43.0042  43.0463 0001286 247.8079 112.2636 15.27585819 26899","mean_motion":15.27585819,"eccentricity":0.0001286,"inclination_deg":43.0042,"raan_deg":43.0463,"arg_perigee_deg":247.8079,"mean_anomaly_deg":112.2636,"bstar":0.0004592,"rev_number":2689,"period_min":94.266389625341,"perigee_km":482.14932562438,"apogee_km":483.9140182068,"semimajor_km":6861.1686719156,"source":"CELESTRAK","updated_at":"2026-05-25T13:38:21.329093Z"}}}